This demonstration page uses our WeatherBlox Daily Observations layout. Learn more.

Left ArrowRight Arrow

Hourly Observations for May 22, 2015

Temp ( °F °C ) Dew Point ( °F °C ) Humidity (%) Winds ( mph kmh ) Pressure ( in mb ) Visibility ( mi km ) Precip ( " mm )
12:52 am 00:52 Mostly Clear 60 15.6 40 4.4 47 47 WSW 5 7 30.18 1022 10 16 0.00 0.00
1:52 am 01:52 Partly Cloudy 59 15 41 5 51 51 SW 3 6 30.18 1022 10 16 0.00 0.00
2:52 am 02:52 Partly Cloudy 59 15 40 4.4 49 49 WSW 5 7 30.18 1022 10 16 0.00 0.00
3:52 am 03:52 Partly Cloudy 58 14.4 40 4.4 51 51 Calm 30.18 1022 10 16 0.00 0.00
4:52 am 04:52 Partly Cloudy 52 11.1 44 6.7 75 75 Calm 30.19 1022 10 16 0.00 0.00
5:52 am 05:52 Mostly Cloudy 49 9.4 43 6.1 80 80 NW 3 6 30.20 1023 10 16 0.00 0.00
6:52 am 06:52 Mostly Cloudy 50 10 44 6.7 80 80 Calm 30.20 1023 10 16 0.00 0.00
7:52 am 07:52 Cloudy 55 12.8 47 8.3 74 74 Calm 30.21 1023 10 16 0.00 0.00
8:52 am 08:52 Cloudy 59 15 45 7.2 60 60 Calm 30.22 1023 10 16 0.00 0.00
9:52 am 09:52 Cloudy 62 16.7 44 6.7 52 52 S 3 6 30.23 1024 10 16 0.00 0.00
10:52 am 10:52 Cloudy 66 18.9 46 7.8 49 49 Calm 30.22 1024 10 16 0.00 0.00
11:52 am 11:52 Cloudy 67 19.4 44 6.7 44 44 SSE 5 7 30.22 1023 10 16 0.00 0.00
12:52 pm 12:52 Cloudy 68 20 44 6.7 42 42 SSE 5 7 30.22 1023 10 16 0.00 0.00
1:52 pm 13:52 Cloudy 70 21.1 39 3.9 32 32 SSW 10 17 30.21 1023 10 16 0.00 0.00
2:52 pm 14:52 Cloudy 68 20 39 3.9 35 35 SSW 13 20 30.22 1023 10 16 0.00 0.00
3:52 pm 15:52 Cloudy with Light Rain 61 16.1 48 8.9 63 63 SW 9 15 30.24 1024 10 16 0.00 0.03
4:52 pm 16:52 Cloudy 63 17.2 49 9.4 60 60 E 9 15 30.21 1023 10 16 0.01 0.25
5:52 pm 17:52 Mostly Cloudy 65 18.3 47 8.3 52 52 E 9 15 30.19 1023 10 16 0.00 0.00
6:52 pm 18:52 Mostly Cloudy 67 19.4 43 6.1 42 42 ESE 8 13 30.17 1022 10 16 0.00 0.00
7:52 pm 19:52 Mostly Cloudy 65 18.3 43 6.1 45 45 ESE 8 13 30.17 1022 10 16 0.00 0.00
8:52 pm 20:52 Cloudy 63 17.2 46 7.8 54 54 SE 7 11 30.17 1022 10 16 0.00 0.00
9:52 pm 21:52 Cloudy 61 16.1 48 8.9 63 63 SSE 7 11 30.18 1022 10 16 0.00 0.03
10:52 pm 22:52 Cloudy 60 15.6 49 9.4 67 67 SSE 7 11 30.19 1022 10 16 0.00 0.00
11:52 pm 23:52 Cloudy 60 15.6 49 9.4 67 67 SSE 8 13 30.19 1022 10 16 0.00 0.00

Powered by AerisWeather